Location: Boda
(47.1872°N, 9.5454°E)
Time: 09:48:01
(UTC+00:00)

Cosmos 1697 Rocket - Pass Details

Date: 14 May 2021
Orbit: 832 x 843 km, 71.0° (Epoch: 16 June)

Event Time Altitude Azimuth Distance (km) Brightness Sun altitude
Exits shadow 01:37:17 28° 202° (SSW) 1,522 3.5 -17.1°
Maximum altitude 01:40:23 86° 115° (ESE) 842 2.6 -16.8°
Drops below altitude 10° 01:46:01 10° 28° (NNE) 2,452 6.4 -16.3°
Sets 01:48:28 0° 28° (NNE) 3,391 7.6 -16.0°
